Time,TemperatureF,DewpointF,PressureIn,WindDirection,WindDirectionDegrees,WindSpeedMPH,WindSpeedGustMPH,Humidity,HourlyPrecipIn,Conditions,Clouds,dailyrainin,SoftwareType,DateUTC
2013-10-01 00:00:00,61.5,55.3,29.92,South,180,0.0,7.2,80,0.00,,,0.00,WUHU21623XXSP,2013-10-01 05:00:00,
2013-10-01 00:06:00,61.5,55.3,29.93,South,180,1.6,7.2,80,0.00,,,0.00,WUHU21623XXSP,2013-10-01 05:06:00,
2013-10-01 00:16:00,61.3,55.5,29.93,SSE,157,0.0,1.6,81,0.00,,,0.00,WUHU21623XXSP,2013-10-01 05:16:00,
2013-10-01 00:21:00,61.2,55.7,29.92,SSE,157,6.9,6.9,82,0.00,,,0.00,WUHU21623XXSP,2013-10-01 05:21:00,
2013-10-01 00:26:00,61.3,56.1,29.92,SSE,157,0.0,7.6,83,0.00,,,0.00,WUHU21623XXSP,2013-10-01 05:26:00,
2013-10-01 00:32:00,61.3,56.1,29.92,SSE,157,7.2,7.6,83,0.00,,,0.00,WUHU21623XXSP,2013-10-01 05:32:00,
2013-10-01 00:37:00,61.2,56.1,29.92,SSE,157,3.6,7.2,83,0.00,,,0.00,WUHU21623XXSP,2013-10-01 05:37:00,
2013-10-01 00:42:00,61.0,56.0,29.92,SSE,157,3.6,3.6,83,0.00,,,0.00,WUHU21623XXSP,2013-10-01 05:42:00,
2013-10-01 00:49:00,61.0,56.1,29.93,South,180,0.0,3.6,84,0.00,,,0.00,WUHU21623XXSP,2013-10-01 05:49:00,
2013-10-01 00:54:00,60.6,55.8,29.93,South,180,8.3,8.3,84,0.00,,,0.00,WUHU21623XXSP,2013-10-01 05:54:00,
2013-10-01 00:59:00,60.6,55.8,29.93,South,180,8.3,8.3,84,0.00,,,0.00,WUHU21623XXSP,2013-10-01 05:59:00,
2013-10-01 01:05:00,60.6,55.8,29.93,South,180,8.3,8.3,84,0.00,,,0.00,WUHU21623XXSP,2013-10-01 06:05:00,
2013-10-01 01:17:00,60.4,55.9,29.94,SSW,202,4.5,8.3,85,0.00,,,0.00,WUHU21623XXSP,2013-10-01 06:17:00,
2013-10-01 01:22:00,60.4,56.3,29.94,South,180,4.5,8.9,86,0.00,,,0.00,WUHU21623XXSP,2013-10-01 06:22:00,
2013-10-01 01:29:00,60.4,56.3,29.94,South,180,0.0,8.9,86,0.00,,,0.00,WUHU21623XXSP,2013-10-01 06:29:00,
2013-10-01 01:34:00,60.6,56.8,29.95,South,180,6.7,8.9,87,0.00,,,0.00,WUHU21623XXSP,2013-10-01 06:34:00,
2013-10-01 01:39:00,60.6,57.1,29.95,South,180,4.9,8.9,88,0.00,,,0.00,WUHU21623XXSP,2013-10-01 06:39:00,
2013-10-01 01:44:00,60.6,57.1,29.95,South,180,8.5,8.5,88,0.00,,,0.00,WUHU21623XXSP,2013-10-01 06:44:00,
2013-10-01 01:49:00,60.6,57.1,29.95,SSE,157,0.0,8.5,88,0.00,,,0.00,WUHU21623XXSP,2013-10-01 06:49:00,
2013-10-01 01:54:00,60.6,57.1,29.95,South,180,6.5,6.5,88,0.00,,,0.00,WUHU21623XXSP,2013-10-01 06:54:00,
2013-10-01 01:59:00,60.6,57.1,29.95,South,180,0.7,7.6,88,0.00,,,0.00,WUHU21623XXSP,2013-10-01 06:59:00,
2013-10-01 02:04:00,60.6,57.1,29.95,SSE,157,1.1,7.6,88,0.00,,,0.00,WUHU21623XXSP,2013-10-01 07:04:00,
2013-10-01 02:11:00,60.6,57.1,29.95,South,180,6.7,6.7,88,0.00,,,0.00,WUHU21623XXSP,2013-10-01 07:11:00,
2013-10-01 02:16:00,60.6,57.1,29.95,SSW,202,7.6,7.6,88,0.00,,,0.00,WUHU21623XXSP,2013-10-01 07:16:00,
2013-10-01 02:21:00,60.8,57.3,29.94,South,180,0.0,7.6,88,0.00,,,0.00,WUHU21623XXSP,2013-10-01 07:21:00,
2013-10-01 02:26:00,61.0,57.4,29.94,South,180,1.6,7.6,88,0.00,,,0.00,WUHU21623XXSP,2013-10-01 07:26:00,
2013-10-01 02:31:00,61.0,57.4,29.94,South,180,0.0,7.6,88,0.00,,,0.00,WUHU21623XXSP,2013-10-01 07:31:00,
2013-10-01 02:36:00,61.0,57.4,29.94,SSW,202,5.4,7.4,88,0.00,,,0.00,WUHU21623XXSP,2013-10-01 07:36:00,
2013-10-01 02:41:00,61.0,57.4,29.94,SSE,157,0.7,7.4,88,0.00,,,0.00,WUHU21623XXSP,2013-10-01 07:41:00,
2013-10-01 02:46:00,61.0,57.4,29.94,South,180,0.0,0.7,88,0.00,,,0.00,WUHU21623XXSP,2013-10-01 07:46:00,
2013-10-01 02:52:00,61.0,57.4,29.95,SSE,157,1.8,1.8,88,0.00,,,0.00,WUHU21623XXSP,2013-10-01 07:52:00,
2013-10-01 02:57:00,61.0,57.4,29.94,SSE,157,4.5,4.5,88,0.00,,,0.00,WUHU21623XXSP,2013-10-01 07:57:00,
2013-10-01 03:02:00,60.8,57.4,29.95,South,180,7.6,7.6,88,0.00,,,0.00,WUHU21623XXSP,2013-10-01 08:02:00,
2013-10-01 03:07:00,60.6,57.1,29.94,SSE,157,4.5,7.6,88,0.00,,,0.00,WUHU21623XXSP,2013-10-01 08:07:00,
2013-10-01 03:12:00,60.6,57.1,29.94,South,180,4.7,4.7,88,0.00,,,0.00,WUHU21623XXSP,2013-10-01 08:12:00,
2013-10-01 03:15:00,60.4,57.1,29.94,South,180,6.5,6.5,88,0.00,,,0.00,WUHU21623XXSP,2013-10-01 08:15:00,
2013-10-01 03:21:00,60.4,56.6,29.95,South,180,8.1,8.1,87,0.00,,,0.00,WUHU21623XXSP,2013-10-01 08:21:00,
2013-10-01 03:31:00,60.6,57.1,29.94,SSE,157,2.5,5.4,88,0.00,,,0.00,WUHU21623XXSP,2013-10-01 08:31:00,
2013-10-01 03:37:00,60.8,56.9,29.94,SSW,202,0.0,9.4,87,0.00,,,0.00,WUHU21623XXSP,2013-10-01 08:37:00,
2013-10-01 03:43:00,61.0,57.1,29.95,SSE,157,0.0,9.4,87,0.00,,,0.00,WUHU21623XXSP,2013-10-01 08:43:00,
2013-10-01 03:49:00,61.0,57.1,29.95,South,180,0.0,0.0,87,0.00,,,0.00,WUHU21623XXSP,2013-10-01 08:49:00,
2013-10-01 03:54:00,61.0,57.1,29.95,SSE,157,0.0,6.5,87,0.00,,,0.00,WUHU21623XXSP,2013-10-01 08:54:00,
2013-10-01 04:00:00,61.0,56.8,29.95,SSW,202,0.0,6.5,86,0.00,,,0.00,WUHU21623XXSP,2013-10-01 09:00:00,
2013-10-01 04:06:00,61.0,56.8,29.95,South,180,0.0,0.0,86,0.00,,,0.00,WUHU21623XXSP,2013-10-01 09:06:00,
2013-10-01 04:12:00,61.0,56.8,29.95,South,180,1.6,1.6,86,0.00,,,0.00,WUHU21623XXSP,2013-10-01 09:12:00,
2013-10-01 04:27:00,61.5,56.8,29.95,SW,225,0.0,0.4,85,0.00,,,0.00,WUHU21623XXSP,2013-10-01 09:27:00,
2013-10-01 04:32:00,61.5,57.0,29.95,SW,225,0.0,0.0,85,0.00,,,0.00,WUHU21623XXSP,2013-10-01 09:32:00,
2013-10-01 04:37:00,61.7,57.1,29.95,SSE,157,2.5,2.5,84,0.00,,,0.00,WUHU21623XXSP,2013-10-01 09:37:00,
2013-10-01 04:42:00,61.9,57.0,29.95,SSW,202,8.5,8.5,84,0.00,,,0.00,WUHU21623XXSP,2013-10-01 09:42:00,
2013-10-01 04:47:00,61.9,57.0,29.95,South,180,6.9,8.5,84,0.00,,,0.00,WUHU21623XXSP,2013-10-01 09:47:00,
2013-10-01 04:52:00,62.1,56.8,29.96,SSW,202,2.5,6.9,83,0.00,,,0.00,WUHU21623XXSP,2013-10-01 09:52:00,
2013-10-01 04:57:00,62.2,57.0,29.96,WSW,247,0.0,7.4,83,0.00,,,0.00,WUHU21623XXSP,2013-10-01 09:57:00,
2013-10-01 05:02:00,62.2,57.0,29.96,SSE,157,0.0,7.4,83,0.00,,,0.00,WUHU21623XXSP,2013-10-01 10:02:00,
2013-10-01 05:07:00,62.2,57.0,29.96,South,180,5.8,5.8,83,0.00,,,0.00,WUHU21623XXSP,2013-10-01 10:07:00,
2013-10-01 05:14:00,62.2,57.0,29.97,SW,225,0.0,5.8,83,0.00,,,0.00,WUHU21623XXSP,2013-10-01 10:14:00,
2013-10-01 05:19:00,62.4,56.8,29.97,SSW,202,0.0,5.6,82,0.00,,,0.00,WUHU21623XXSP,2013-10-01 10:19:00,
2013-10-01 05:24:00,62.4,56.8,29.97,SW,225,2.2,5.6,82,0.00,,,0.00,WUHU21623XXSP,2013-10-01 10:24:00,
2013-10-01 05:30:00,62.4,56.8,29.97,SSE,157,0.0,4.7,82,0.00,,,0.00,WUHU21623XXSP,2013-10-01 10:30:00,
2013-10-01 05:35:00,62.6,56.8,29.97,South,180,0.0,0.0,82,0.00,,,0.00,WUHU21623XXSP,2013-10-01 10:35:00,
2013-10-01 05:40:00,62.6,57.0,29.97,SSW,202,10.7,10.7,82,0.00,,,0.00,WUHU21623XXSP,2013-10-01 10:40:00,
2013-10-01 05:45:00,62.8,57.2,29.97,SW,225,0.0,10.7,82,0.00,,,0.00,WUHU21623XXSP,2013-10-01 10:45:00,
2013-10-01 05:50:00,62.8,57.2,29.98,SW,225,0.0,0.0,82,0.00,,,0.00,WUHU21623XXSP,2013-10-01 10:50:00,
2013-10-01 05:55:00,63.0,57.3,29.98,SW,225,0.0,5.1,82,0.00,,,0.00,WUHU21623XXSP,2013-10-01 10:55:00,
2013-10-01 06:00:00,63.1,57.5,29.98,SSW,202,0.0,5.1,82,0.00,,,0.00,WUHU21623XXSP,2013-10-01 11:00:00,
2013-10-01 06:05:00,63.1,57.5,29.98,South,180,0.0,4.0,82,0.00,,,0.00,WUHU21623XXSP,2013-10-01 11:05:00,
2013-10-01 06:11:00,63.1,57.5,29.98,SSW,202,4.0,6.3,82,0.00,,,0.00,WUHU21623XXSP,2013-10-01 11:11:00,
2013-10-01 06:16:00,63.3,57.5,29.98,South,180,3.6,6.3,82,0.00,,,0.00,WUHU21623XXSP,2013-10-01 11:16:00,
2013-10-01 06:23:00,63.3,57.7,29.98,South,180,3.6,4.0,82,0.00,,,0.00,WUHU21623XXSP,2013-10-01 11:23:00,
2013-10-01 06:28:00,63.5,58.2,29.98,SW,225,1.8,4.0,83,0.00,,,0.00,WUHU21623XXSP,2013-10-01 11:28:00,
2013-10-01 06:33:00,63.5,58.2,29.98,South,180,5.8,5.8,83,0.00,,,0.00,WUHU21623XXSP,2013-10-01 11:33:00,
2013-10-01 06:38:00,63.7,58.2,29.98,South,180,0.0,9.4,83,0.00,,,0.00,WUHU21623XXSP,2013-10-01 11:38:00,
2013-10-01 06:44:00,63.7,58.7,29.98,SSW,202,4.3,9.4,84,0.00,,,0.00,WUHU21623XXSP,2013-10-01 11:44:00,
2013-10-01 06:49:00,63.7,58.7,29.98,SSE,157,4.5,4.5,84,0.00,,,0.00,WUHU21623XXSP,2013-10-01 11:49:00,
2013-10-01 06:54:00,63.7,58.7,29.99,SSW,202,0.0,4.5,84,0.00,,,0.00,WUHU21623XXSP,2013-10-01 11:54:00,
2013-10-01 06:59:00,63.7,58.7,29.98,SSW,202,0.0,2.5,84,0.00,,,0.00,WUHU21623XXSP,2013-10-01 11:59:00,
2013-10-01 07:04:00,64.0,59.1,29.98,SSW,202,0.0,1.8,84,0.00,,,0.00,WUHU21623XXSP,2013-10-01 12:04:00,
2013-10-01 07:09:00,64.0,59.5,29.98,South,180,4.7,4.7,85,0.00,,,0.00,WUHU21623XXSP,2013-10-01 12:09:00,
2013-10-01 07:14:00,64.0,59.5,29.98,South,180,6.9,6.9,85,0.00,,,0.00,WUHU21623XXSP,2013-10-01 12:14:00,
2013-10-01 07:19:00,64.0,59.5,29.98,South,180,0.0,6.9,85,0.00,,,0.00,WUHU21623XXSP,2013-10-01 12:19:00,
2013-10-01 07:24:00,64.0,59.5,29.98,South,180,4.3,4.3,85,0.00,,,0.00,WUHU21623XXSP,2013-10-01 12:24:00,
2013-10-01 07:29:00,64.2,60.0,29.99,SSW,202,0.0,4.3,86,0.00,,,0.00,WUHU21623XXSP,2013-10-01 12:29:00,
2013-10-01 07:34:00,64.2,60.0,29.98,SSW,202,2.0,2.0,86,0.00,,,0.00,WUHU21623XXSP,2013-10-01 12:34:00,
2013-10-01 07:40:00,64.2,60.0,29.99,South,180,4.5,4.5,86,0.00,,,0.00,WUHU21623XXSP,2013-10-01 12:40:00,
2013-10-01 07:45:00,64.6,60.7,29.99,South,180,8.1,8.1,87,0.00,,,0.00,WUHU21623XXSP,2013-10-01 12:45:00,
2013-10-01 07:50:00,64.6,60.7,29.99,South,180,0.0,8.1,87,0.00,,,0.00,WUHU21623XXSP,2013-10-01 12:50:00,
2013-10-01 07:55:00,64.8,60.8,29.99,South,180,0.0,6.3,87,0.00,,,0.00,WUHU21623XXSP,2013-10-01 12:55:00,
2013-10-01 08:00:00,64.8,61.0,29.99,SSE,157,0.0,6.3,87,0.00,,,0.00,WUHU21623XXSP,2013-10-01 13:00:00,
2013-10-01 08:05:00,64.9,61.3,29.99,SSE,157,5.4,5.4,88,0.00,,,0.00,WUHU21623XXSP,2013-10-01 13:05:00,
2013-10-01 08:10:00,65.1,61.5,29.99,SSW,202,6.0,6.0,88,0.00,,,0.00,WUHU21623XXSP,2013-10-01 13:10:00,
2013-10-01 08:15:00,65.3,61.7,29.99,SW,225,6.0,6.0,88,0.00,,,0.00,WUHU21623XXSP,2013-10-01 13:15:00,
2013-10-01 08:20:00,65.3,61.7,29.99,South,180,0.0,6.0,88,0.00,,,0.00,WUHU21623XXSP,2013-10-01 13:20:00,
2013-10-01 08:25:00,65.5,61.8,29.99,South,180,6.3,6.3,88,0.00,,,0.00,WUHU21623XXSP,2013-10-01 13:25:00,
2013-10-01 08:30:00,65.7,62.0,29.99,SSW,202,0.0,6.3,88,0.00,,,0.00,WUHU21623XXSP,2013-10-01 13:30:00,
2013-10-01 08:35:00,65.8,62.2,30.00,SSE,157,0.0,5.6,88,0.00,,,0.00,WUHU21623XXSP,2013-10-01 13:35:00,
2013-10-01 08:41:00,66.0,62.3,30.00,SSW,202,0.0,6.5,88,0.00,,,0.00,WUHU21623XXSP,2013-10-01 13:41:00,
2013-10-01 08:46:00,66.0,62.3,29.99,SSE,157,10.3,10.3,88,0.00,,,0.00,WUHU21623XXSP,2013-10-01 13:46:00,
2013-10-01 08:51:00,66.0,62.3,30.00,West,270,0.9,10.3,88,0.00,,,0.00,WUHU21623XXSP,2013-10-01 13:51:00,
2013-10-01 08:56:00,66.4,62.7,30.00,SSW,202,0.0,0.9,88,0.00,,,0.00,WUHU21623XXSP,2013-10-01 13:56:00,
2013-10-01 09:01:00,66.6,62.9,30.00,South,180,0.0,0.0,88,0.00,,,0.00,WUHU21623XXSP,2013-10-01 14:01:00,
2013-10-01 09:06:00,66.9,63.2,30.00,SSE,157,0.0,6.5,88,0.00,,,0.00,WUHU21623XXSP,2013-10-01 14:06:00,
2013-10-01 09:11:00,67.1,63.1,30.00,SSW,202,10.5,10.5,87,0.00,,,0.00,WUHU21623XXSP,2013-10-01 14:11:00,
2013-10-01 09:17:00,67.3,63.2,30.00,South,180,13.2,13.2,87,0.00,,,0.00,WUHU21623XXSP,2013-10-01 14:17:00,
2013-10-01 09:22:00,67.6,63.6,30.00,SSW,202,6.7,13.2,87,0.00,,,0.00,WUHU21623XXSP,2013-10-01 14:22:00,
2013-10-01 09:27:00,67.8,63.3,29.99,SSE,157,14.3,14.3,86,0.00,,,0.00,WUHU21623XXSP,2013-10-01 14:27:00,
2013-10-01 09:32:00,68.4,63.7,30.00,SSW,202,0.0,14.3,85,0.00,,,0.00,WUHU21623XXSP,2013-10-01 14:32:00,
2013-10-01 09:37:00,68.5,63.8,30.00,South,180,0.0,0.0,85,0.00,,,0.00,WUHU21623XXSP,2013-10-01 14:37:00,
2013-10-01 09:42:00,68.5,63.5,30.00,South,180,9.2,9.2,84,0.00,,,0.00,WUHU21623XXSP,2013-10-01 14:42:00,
2013-10-01 09:47:00,68.9,63.8,30.00,SSW,202,0.0,9.2,84,0.00,,,0.00,WUHU21623XXSP,2013-10-01 14:47:00,
2013-10-01 09:52:00,68.9,63.8,30.00,South,180,2.2,10.3,84,0.00,,,0.00,WUHU21623XXSP,2013-10-01 14:52:00,
2013-10-01 09:57:00,69.1,63.7,30.00,SSW,202,0.0,10.3,83,0.00,,,0.00,WUHU21623XXSP,2013-10-01 14:57:00,
2013-10-01 10:02:00,69.4,63.7,30.00,SSW,202,6.5,7.8,82,0.00,,,0.00,WUHU21623XXSP,2013-10-01 15:02:00,
2013-10-01 10:07:00,69.4,63.7,30.00,SSE,157,0.0,7.8,82,0.00,,,0.00,WUHU21623XXSP,2013-10-01 15:07:00,
2013-10-01 10:12:00,69.6,63.8,30.00,SSE,157,6.0,8.5,82,0.00,,,0.00,WUHU21623XXSP,2013-10-01 15:12:00,
2013-10-01 10:17:00,69.6,63.5,30.00,WSW,247,0.0,8.5,81,0.00,,,0.00,WUHU21623XXSP,2013-10-01 15:17:00,
2013-10-01 10:22:00,70.0,63.8,30.00,SSW,202,3.6,7.8,81,0.00,,,0.00,WUHU21623XXSP,2013-10-01 15:22:00,
2013-10-01 10:27:00,70.3,64.2,29.99,SSE,157,8.7,8.7,81,0.00,,,0.00,WUHU21623XXSP,2013-10-01 15:27:00,
2013-10-01 10:32:00,70.7,64.2,30.00,South,180,5.8,8.7,80,0.00,,,0.00,WUHU21623XXSP,2013-10-01 15:32:00,
2013-10-01 10:37:00,70.9,64.4,30.00,West,270,0.7,5.8,80,0.00,,,0.00,WUHU21623XXSP,2013-10-01 15:37:00,
2013-10-01 10:42:00,71.2,64.4,29.99,SSE,157,7.4,7.4,79,0.00,,,0.00,WUHU21623XXSP,2013-10-01 15:42:00,
2013-10-01 10:47:00,71.2,64.0,30.00,WSW,247,0.0,7.4,78,0.00,,,0.00,WUHU21623XXSP,2013-10-01 15:47:00,
2013-10-01 10:52:00,71.8,64.5,30.00,WSW,247,0.0,7.6,78,0.00,,,0.00,WUHU21623XXSP,2013-10-01 15:52:00,
2013-10-01 10:57:00,72.1,64.9,29.99,SW,225,0.0,7.6,78,0.00,,,0.00,WUHU21623XXSP,2013-10-01 15:57:00,
2013-10-01 11:03:00,72.3,64.5,29.99,South,180,8.9,8.9,77,0.00,,,0.00,WUHU21623XXSP,2013-10-01 16:03:00,
2013-10-01 11:08:00,72.3,64.7,29.99,WSW,247,4.9,8.9,76,0.00,,,0.00,WUHU21623XXSP,2013-10-01 16:08:00,
2013-10-01 11:13:00,72.5,64.5,29.99,SSW,202,7.2,7.2,76,0.00,,,0.00,WUHU21623XXSP,2013-10-01 16:13:00,
2013-10-01 11:18:00,72.7,64.7,29.99,South,180,5.1,7.2,76,0.00,,,0.00,WUHU21623XXSP,2013-10-01 16:18:00,
2013-10-01 11:23:00,72.5,64.1,29.99,SSW,202,7.6,11.0,75,0.00,,,0.00,WUHU21623XXSP,2013-10-01 16:23:00,
2013-10-01 11:28:00,72.7,64.3,29.99,South,180,6.9,11.0,75,0.00,,,0.00,WUHU21623XXSP,2013-10-01 16:28:00,
2013-10-01 11:31:00,73.0,64.7,29.98,SW,225,9.4,9.4,75,0.00,,,0.00,WUHU21623XXSP,2013-10-01 16:31:00,
2013-10-01 11:36:00,73.8,65.2,29.99,SSW,202,9.8,9.8,74,0.00,,,0.00,WUHU21623XXSP,2013-10-01 16:36:00,
2013-10-01 11:41:00,73.9,64.8,29.99,SSW,202,3.1,9.8,73,0.00,,,0.00,WUHU21623XXSP,2013-10-01 16:41:00,
2013-10-01 11:46:00,74.5,65.5,29.98,SW,225,6.5,9.8,73,0.00,,,0.00,WUHU21623XXSP,2013-10-01 16:46:00,
2013-10-01 11:51:00,74.7,65.0,29.98,SSW,202,7.2,7.2,72,0.00,,,0.00,WUHU21623XXSP,2013-10-01 16:51:00,
2013-10-01 11:56:00,74.5,64.9,29.98,SW,225,7.8,7.8,72,0.00,,,0.00,WUHU21623XXSP,2013-10-01 16:56:00,
2013-10-01 12:01:00,74.7,64.7,29.98,SW,225,0.0,7.8,71,0.00,,,0.00,WUHU21623XXSP,2013-10-01 17:01:00,
2013-10-01 12:06:00,74.8,65.2,29.98,SSW,202,0.0,6.3,71,0.00,,,0.00,WUHU21623XXSP,2013-10-01 17:06:00,
2013-10-01 12:11:00,74.8,64.8,29.98,WSW,247,8.9,8.9,71,0.00,,,0.00,WUHU21623XXSP,2013-10-01 17:11:00,
2013-10-01 12:17:00,74.8,64.8,29.98,WSW,247,0.0,8.9,71,0.00,,,0.00,WUHU21623XXSP,2013-10-01 17:17:00,
2013-10-01 12:22:00,75.0,65.4,29.98,WSW,247,0.0,8.9,72,0.00,,,0.00,WUHU21623XXSP,2013-10-01 17:22:00,
2013-10-01 12:27:00,75.4,65.3,29.98,NW,315,6.9,6.9,71,0.00,,,0.00,WUHU21623XXSP,2013-10-01 17:27:00,
2013-10-01 12:32:00,75.6,65.5,29.98,NW,315,6.9,6.9,70,0.00,,,0.00,WUHU21623XXSP,2013-10-01 17:32:00,
2013-10-01 12:37:00,75.6,65.1,29.98,SSW,202,6.9,6.9,70,0.00,,,0.00,WUHU21623XXSP,2013-10-01 17:37:00,
2013-10-01 12:42:00,75.6,65.1,29.98,SSW,202,9.2,10.5,70,0.00,,,0.00,WUHU21623XXSP,2013-10-01 17:42:00,
2013-10-01 12:47:00,75.7,65.3,29.98,WSW,247,0.0,10.5,70,0.00,,,0.00,WUHU21623XXSP,2013-10-01 17:47:00,
2013-10-01 12:52:00,75.7,65.3,29.98,West,270,3.4,9.2,70,0.00,,,0.00,WUHU21623XXSP,2013-10-01 17:52:00,
2013-10-01 12:57:00,75.7,65.3,29.98,WSW,247,0.4,6.3,70,0.00,,,0.00,WUHU21623XXSP,2013-10-01 17:57:00,
2013-10-01 13:02:00,75.4,65.1,29.98,South,180,0.0,3.6,70,0.00,,,0.00,WUHU21623XXSP,2013-10-01 18:02:00,
2013-10-01 13:07:00,75.9,65.5,29.98,SSW,202,10.1,10.1,70,0.00,,,0.00,WUHU21623XXSP,2013-10-01 18:07:00,
2013-10-01 13:12:00,76.1,65.2,29.97,SW,225,15.2,15.2,69,0.00,,,0.00,WUHU21623XXSP,2013-10-01 18:12:00,
2013-10-01 13:17:00,76.1,65.2,29.97,SW,225,9.6,15.2,69,0.00,,,0.00,WUHU21623XXSP,2013-10-01 18:17:00,
2013-10-01 13:22:00,76.1,65.2,29.97,SW,225,0.0,9.6,69,0.00,,,0.00,WUHU21623XXSP,2013-10-01 18:22:00,
2013-10-01 13:27:00,76.3,65.4,29.97,SSW,202,8.1,8.1,69,0.00,,,0.00,WUHU21623XXSP,2013-10-01 18:27:00,
2013-10-01 13:32:00,76.3,65.4,29.96,SSW,202,8.5,8.5,69,0.00,,,0.00,WUHU21623XXSP,2013-10-01 18:32:00,
2013-10-01 13:37:00,76.3,65.4,29.97,South,180,7.6,8.5,69,0.00,,,0.00,WUHU21623XXSP,2013-10-01 18:37:00,
2013-10-01 13:42:00,76.6,65.8,29.96,WSW,247,0.0,10.1,69,0.00,,,0.00,WUHU21623XXSP,2013-10-01 18:42:00,
2013-10-01 13:47:00,76.8,65.9,29.96,SW,225,3.8,10.1,69,0.00,,,0.00,WUHU21623XXSP,2013-10-01 18:47:00,
2013-10-01 13:52:00,77.2,66.3,29.96,SW,225,8.5,8.5,69,0.00,,,0.00,WUHU21623XXSP,2013-10-01 18:52:00,
2013-10-01 13:57:00,77.4,66.0,29.96,SSE,157,0.0,8.5,68,0.00,,,0.00,WUHU21623XXSP,2013-10-01 18:57:00,
2013-10-01 14:02:00,77.2,65.8,29.96,West,270,4.0,4.0,68,0.00,,,0.00,WUHU21623XXSP,2013-10-01 19:02:00,
2013-10-01 14:07:00,77.2,65.8,29.96,SW,225,6.9,6.9,68,0.00,,,0.00,WUHU21623XXSP,2013-10-01 19:07:00,
2013-10-01 14:12:00,77.2,65.8,29.96,SW,225,6.9,6.9,68,0.00,,,0.00,WUHU21623XXSP,2013-10-01 19:12:00,
2013-10-01 14:18:00,77.5,66.0,29.95,South,180,8.7,8.7,68,0.00,,,0.00,WUHU21623XXSP,2013-10-01 19:18:00,
2013-10-01 14:23:00,77.7,65.9,29.95,SW,225,0.0,8.7,67,0.00,,,0.00,WUHU21623XXSP,2013-10-01 19:23:00,
2013-10-01 14:28:00,77.5,65.7,29.95,SSE,157,8.9,8.9,67,0.00,,,0.00,WUHU21623XXSP,2013-10-01 19:28:00,
2013-10-01 14:33:00,77.5,65.7,29.95,SW,225,2.2,8.9,67,0.00,,,0.00,WUHU21623XXSP,2013-10-01 19:33:00,
2013-10-01 14:38:00,77.7,65.9,29.95,South,180,6.9,8.3,67,0.00,,,0.00,WUHU21623XXSP,2013-10-01 19:38:00,
2013-10-01 14:43:00,78.1,66.2,29.95,South,180,6.9,6.9,67,0.00,,,0.00,WUHU21623XXSP,2013-10-01 19:43:00,
2013-10-01 14:48:00,78.4,66.1,29.95,SSW,202,0.0,6.9,66,0.00,,,0.00,WUHU21623XXSP,2013-10-01 19:48:00,
2013-10-01 14:53:00,77.9,65.6,29.95,WSW,247,0.0,7.2,66,0.00,,,0.00,WUHU21623XXSP,2013-10-01 19:53:00,
2013-10-01 14:58:00,77.9,65.6,29.95,WSW,247,11.0,11.0,66,0.00,,,0.00,WUHU21623XXSP,2013-10-01 19:58:00,
2013-10-01 15:03:00,78.3,65.9,29.94,WSW,247,8.1,11.0,66,0.00,,,0.00,WUHU21623XXSP,2013-10-01 20:03:00,
2013-10-01 15:08:00,78.4,65.5,29.94,SSW,202,8.9,11.0,65,0.00,,,0.00,WUHU21623XXSP,2013-10-01 20:08:00,
2013-10-01 15:13:00,78.4,65.7,29.95,WSW,247,0.0,8.9,65,0.00,,,0.00,WUHU21623XXSP,2013-10-01 20:13:00,
2013-10-01 15:19:00,78.1,65.3,29.94,WSW,247,9.2,9.2,65,0.00,,,0.00,WUHU21623XXSP,2013-10-01 20:19:00,
2013-10-01 15:24:00,78.6,65.8,29.94,WSW,247,8.7,11.2,65,0.00,,,0.00,WUHU21623XXSP,2013-10-01 20:24:00,
2013-10-01 15:29:00,79.0,66.2,29.94,WSW,247,8.7,11.2,65,0.00,,,0.00,WUHU21623XXSP,2013-10-01 20:29:00,
2013-10-01 15:34:00,78.6,65.4,29.93,WSW,247,6.9,8.7,64,0.00,,,0.00,WUHU21623XXSP,2013-10-01 20:34:00,
2013-10-01 15:39:00,78.6,65.4,29.93,WSW,247,5.8,6.9,64,0.00,,,0.00,WUHU21623XXSP,2013-10-01 20:39:00,
2013-10-01 15:44:00,79.0,66.2,29.93,WSW,247,0.0,8.1,65,0.00,,,0.00,WUHU21623XXSP,2013-10-01 20:44:00,
2013-10-01 15:49:00,79.2,65.9,29.93,WSW,247,12.3,12.3,64,0.00,,,0.00,WUHU21623XXSP,2013-10-01 20:49:00,
2013-10-01 15:54:00,79.3,66.1,29.93,WSW,247,3.1,12.3,64,0.00,,,0.00,WUHU21623XXSP,2013-10-01 20:54:00,
2013-10-01 15:59:00,79.5,65.8,29.93,WSW,247,7.4,7.4,63,0.00,,,0.00,WUHU21623XXSP,2013-10-01 20:59:00,
2013-10-01 16:04:00,79.7,66.0,29.92,WSW,247,8.1,8.1,63,0.00,,,0.00,WUHU21623XXSP,2013-10-01 21:04:00,
2013-10-01 16:09:00,79.7,66.0,29.93,WSW,247,0.0,8.1,63,0.00,,,0.00,WUHU21623XXSP,2013-10-01 21:09:00,
2013-10-01 16:14:00,79.5,65.8,29.92,WSW,247,2.0,8.1,63,0.00,,,0.00,WUHU21623XXSP,2013-10-01 21:14:00,
2013-10-01 16:19:00,79.5,65.8,29.93,WSW,247,11.9,11.9,63,0.00,,,0.00,WUHU21623XXSP,2013-10-01 21:19:00,
2013-10-01 16:24:00,79.5,65.4,29.93,West,270,0.0,11.9,62,0.00,,,0.00,WUHU21623XXSP,2013-10-01 21:24:00,
2013-10-01 16:29:00,79.2,65.0,29.93,WSW,247,0.0,11.9,62,0.00,,,0.00,WUHU21623XXSP,2013-10-01 21:29:00,
2013-10-01 16:34:00,79.2,65.0,29.93,WSW,247,0.2,8.7,62,0.00,,,0.00,WUHU21623XXSP,2013-10-01 21:34:00,
2013-10-01 16:39:00,79.0,64.9,29.93,WSW,247,12.1,12.1,62,0.00,,,0.00,WUHU21623XXSP,2013-10-01 21:39:00,
2013-10-01 16:44:00,79.3,65.2,29.93,WSW,247,11.6,12.1,62,0.00,,,0.00,WUHU21623XXSP,2013-10-01 21:44:00,
2013-10-01 16:49:00,79.3,65.2,29.93,WSW,247,0.0,11.6,62,0.00,,,0.00,WUHU21623XXSP,2013-10-01 21:49:00,
2013-10-01 16:54:00,79.5,65.2,29.93,WSW,247,4.3,6.0,62,0.00,,,0.00,WUHU21623XXSP,2013-10-01 21:54:00,
2013-10-01 16:59:00,79.5,65.4,29.93,WSW,247,0.0,5.1,62,0.00,,,0.00,WUHU21623XXSP,2013-10-01 21:59:00,
2013-10-01 17:04:00,79.3,65.2,29.93,WSW,247,4.9,8.1,62,0.00,,,0.00,WUHU21623XXSP,2013-10-01 22:04:00,
2013-10-01 17:09:00,79.3,65.2,29.93,WSW,247,8.3,8.3,62,0.00,,,0.00,WUHU21623XXSP,2013-10-01 22:09:00,
2013-10-01 17:14:00,79.0,65.2,29.93,WSW,247,7.8,8.3,62,0.00,,,0.00,WUHU21623XXSP,2013-10-01 22:14:00,
2013-10-01 17:20:00,79.0,64.9,29.93,WSW,247,6.0,7.8,62,0.00,,,0.00,WUHU21623XXSP,2013-10-01 22:20:00,
2013-10-01 17:25:00,79.0,65.3,29.93,WSW,247,6.7,7.8,63,0.00,,,0.00,WUHU21623XXSP,2013-10-01 22:25:00,
2013-10-01 17:30:00,78.8,65.3,29.93,WSW,247,0.0,6.7,63,0.00,,,0.00,WUHU21623XXSP,2013-10-01 22:30:00,
2013-10-01 17:35:00,78.6,65.0,29.93,WSW,247,3.6,6.0,63,0.00,,,0.00,WUHU21623XXSP,2013-10-01 22:35:00,
2013-10-01 17:40:00,78.4,64.8,29.93,WSW,247,0.0,6.0,63,0.00,,,0.00,WUHU21623XXSP,2013-10-01 22:40:00,
2013-10-01 17:45:00,78.4,64.8,29.93,SSW,202,1.3,3.4,63,0.00,,,0.00,WUHU21623XXSP,2013-10-01 22:45:00,
2013-10-01 17:50:00,78.1,64.5,29.93,SW,225,5.1,5.1,63,0.00,,,0.00,WUHU21623XXSP,2013-10-01 22:50:00,
2013-10-01 17:55:00,77.9,64.3,29.93,SW,225,3.4,5.1,63,0.00,,,0.00,WUHU21623XXSP,2013-10-01 22:55:00,
2013-10-01 18:00:00,77.7,64.1,29.93,SSW,202,0.0,3.4,63,0.00,,,0.00,WUHU21623XXSP,2013-10-01 23:00:00,
2013-10-01 18:05:00,77.7,64.5,29.93,SSW,202,4.9,4.9,64,0.00,,,0.00,WUHU21623XXSP,2013-10-01 23:05:00,
2013-10-01 18:10:00,77.2,64.0,29.93,SW,225,0.0,4.9,64,0.00,,,0.00,WUHU21623XXSP,2013-10-01 23:10:00,
2013-10-01 18:15:00,77.2,64.0,29.93,WSW,247,0.0,4.5,64,0.00,,,0.00,WUHU21623XXSP,2013-10-01 23:15:00,
2013-10-01 18:20:00,76.8,64.1,29.93,SSW,202,0.0,8.7,65,0.00,,,0.00,WUHU21623XXSP,2013-10-01 23:20:00,
2013-10-01 18:25:00,76.5,63.8,29.93,SSW,202,4.3,8.7,65,0.00,,,0.00,WUHU21623XXSP,2013-10-01 23:25:00,
2013-10-01 18:30:00,76.3,64.1,29.94,SSW,202,13.2,13.2,66,0.00,,,0.00,WUHU21623XXSP,2013-10-01 23:30:00,
2013-10-01 18:35:00,76.1,63.9,29.94,SW,225,0.0,13.2,66,0.00,,,0.00,WUHU21623XXSP,2013-10-01 23:35:00,
2013-10-01 18:40:00,75.7,63.7,29.94,SW,225,0.0,0.0,67,0.00,,,0.00,WUHU21623XXSP,2013-10-01 23:40:00,
2013-10-01 18:45:00,75.7,64.0,29.94,South,180,0.0,0.0,67,0.00,,,0.00,WUHU21623XXSP,2013-10-01 23:45:00,
2013-10-01 18:50:00,75.4,63.6,29.94,South,180,0.0,0.0,67,0.00,,,0.00,WUHU21623XXSP,2013-10-01 23:50:00,
2013-10-01 18:55:00,75.0,63.7,29.94,SW,225,0.0,2.0,68,0.00,,,0.00,WUHU21623XXSP,2013-10-01 23:55:00,
2013-10-01 19:00:00,74.8,63.6,29.94,WSW,247,0.0,2.0,68,0.00,,,0.00,WUHU21623XXSP,2013-10-02 00:00:00,
2013-10-01 19:05:00,74.5,63.7,29.95,WSW,247,0.0,0.0,69,0.00,,,0.00,WUHU21623XXSP,2013-10-02 00:05:00,
2013-10-01 19:10:00,74.1,63.3,29.95,WSW,247,0.0,0.0,69,0.00,,,0.00,WUHU21623XXSP,2013-10-02 00:10:00,
2013-10-01 19:15:00,74.1,63.3,29.95,SSW,202,0.0,0.0,69,0.00,,,0.00,WUHU21623XXSP,2013-10-02 00:15:00,
2013-10-01 19:16:00,73.9,63.6,29.95,SSW,202,0.0,0.0,70,0.00,,,0.00,WUHU21623XXSP,2013-10-02 00:16:00,
2013-10-01 19:22:00,73.8,63.5,29.95,WSW,247,0.0,0.0,70,0.00,,,0.00,WUHU21623XXSP,2013-10-02 00:22:00,
2013-10-01 19:27:00,73.6,63.3,29.95,WSW,247,0.0,0.0,70,0.00,,,0.00,WUHU21623XXSP,2013-10-02 00:27:00,
2013-10-01 19:32:00,73.4,63.1,29.95,SW,225,0.0,0.0,70,0.00,,,0.00,WUHU21623XXSP,2013-10-02 00:32:00,
2013-10-01 19:37:00,73.2,63.3,29.95,SSW,202,0.0,0.0,71,0.00,,,0.00,WUHU21623XXSP,2013-10-02 00:37:00,
2013-10-01 19:42:00,73.2,63.3,29.95,SSW,202,0.0,7.8,71,0.00,,,0.00,WUHU21623XXSP,2013-10-02 00:42:00,
2013-10-01 19:47:00,73.0,63.3,29.95,SSW,202,0.0,7.8,72,0.00,,,0.00,WUHU21623XXSP,2013-10-02 00:47:00,
2013-10-01 19:53:00,73.0,63.5,29.95,SSW,202,0.0,0.0,72,0.00,,,0.00,WUHU21623XXSP,2013-10-02 00:53:00,
2013-10-01 19:58:00,73.0,63.5,29.96,SSW,202,0.0,0.0,72,0.00,,,0.00,WUHU21623XXSP,2013-10-02 00:58:00,
2013-10-01 20:04:00,72.7,63.6,29.96,SW,225,4.7,4.7,73,0.00,,,0.00,WUHU21623XXSP,2013-10-02 01:04:00,
2013-10-01 20:09:00,72.7,63.6,29.96,SW,225,7.8,7.8,73,0.00,,,0.00,WUHU21623XXSP,2013-10-02 01:09:00,
2013-10-01 20:14:00,72.7,63.6,29.96,WSW,247,7.6,7.8,73,0.00,,,0.00,WUHU21623XXSP,2013-10-02 01:14:00,
2013-10-01 20:19:00,72.7,63.6,29.97,SW,225,0.7,7.8,73,0.00,,,0.00,WUHU21623XXSP,2013-10-02 01:19:00,
2013-10-01 20:24:00,72.5,63.8,29.97,SSW,202,0.0,0.7,74,0.00,,,0.00,WUHU21623XXSP,2013-10-02 01:24:00,
2013-10-01 20:29:00,72.3,63.6,29.96,WSW,247,2.5,2.5,74,0.00,,,0.00,WUHU21623XXSP,2013-10-02 01:29:00,
2013-10-01 20:34:00,72.1,63.8,29.97,SSW,202,0.0,2.5,75,0.00,,,0.00,WUHU21623XXSP,2013-10-02 01:34:00,
2013-10-01 20:39:00,72.0,63.6,29.97,SSW,202,6.5,6.5,75,0.00,,,0.00,WUHU21623XXSP,2013-10-02 01:39:00,
2013-10-01 20:44:00,71.4,63.8,29.97,WSW,247,0.0,6.5,76,0.00,,,0.00,WUHU21623XXSP,2013-10-02 01:44:00,
2013-10-01 20:49:00,71.4,63.4,29.97,WSW,247,0.0,0.0,76,0.00,,,0.00,WUHU21623XXSP,2013-10-02 01:49:00,
2013-10-01 20:54:00,71.4,63.8,29.97,SW,225,4.0,4.3,77,0.00,,,0.00,WUHU21623XXSP,2013-10-02 01:54:00,
2013-10-01 20:59:00,70.9,63.6,29.97,SSW,202,0.0,6.5,78,0.00,,,0.00,WUHU21623XXSP,2013-10-02 01:59:00,
2013-10-01 21:04:00,70.9,63.6,29.98,WSW,247,0.0,6.5,78,0.00,,,0.00,WUHU21623XXSP,2013-10-02 02:04:00,
2013-10-01 21:09:00,70.5,63.8,29.98,SW,225,5.8,5.8,79,0.00,,,0.00,WUHU21623XXSP,2013-10-02 02:09:00,
2013-10-01 21:14:00,70.3,63.9,29.98,SW,225,0.0,5.8,80,0.00,,,0.00,WUHU21623XXSP,2013-10-02 02:14:00,
2013-10-01 21:19:00,70.2,63.7,29.98,WSW,247,0.0,5.6,80,0.00,,,0.00,WUHU21623XXSP,2013-10-02 02:19:00,
2013-10-01 21:24:00,70.0,63.8,29.98,SW,225,0.0,0.0,81,0.00,,,0.00,WUHU21623XXSP,2013-10-02 02:24:00,
2013-10-01 21:29:00,69.6,63.8,29.98,WSW,247,0.0,0.0,82,0.00,,,0.00,WUHU21623XXSP,2013-10-02 02:29:00,
2013-10-01 21:34:00,69.6,63.8,29.98,SW,225,0.0,0.0,82,0.00,,,0.00,WUHU21623XXSP,2013-10-02 02:34:00,
2013-10-01 21:39:00,69.6,63.8,29.98,WSW,247,1.1,1.1,82,0.00,,,0.00,WUHU21623XXSP,2013-10-02 02:39:00,
2013-10-01 21:44:00,69.3,63.8,29.98,WSW,247,0.0,5.4,83,0.00,,,0.00,WUHU21623XXSP,2013-10-02 02:44:00,
2013-10-01 21:49:00,69.1,63.7,29.98,WSW,247,0.0,5.4,83,0.00,,,0.00,WUHU21623XXSP,2013-10-02 02:49:00,
2013-10-01 21:54:00,68.9,63.8,29.98,WSW,247,0.0,4.3,84,0.00,,,0.00,WUHU21623XXSP,2013-10-02 02:54:00,
2013-10-01 21:59:00,68.7,63.7,29.98,SW,225,2.5,5.4,84,0.00,,,0.00,WUHU21623XXSP,2013-10-02 02:59:00,
2013-10-01 22:04:00,68.7,64.0,29.98,SSW,202,0.0,5.4,85,0.00,,,0.00,WUHU21623XXSP,2013-10-02 03:04:00,
2013-10-01 22:09:00,68.5,64.0,29.98,SW,225,6.7,6.7,85,0.00,,,0.00,WUHU21623XXSP,2013-10-02 03:09:00,
2013-10-01 22:14:00,68.4,63.8,29.98,SSW,202,6.0,6.7,85,0.00,,,0.00,WUHU21623XXSP,2013-10-02 03:14:00,
2013-10-01 22:19:00,68.4,63.7,29.98,SW,225,0.0,6.0,85,0.00,,,0.00,WUHU21623XXSP,2013-10-02 03:19:00,
2013-10-01 22:24:00,68.2,64.0,29.98,SSW,202,0.0,4.9,86,0.00,,,0.00,WUHU21623XXSP,2013-10-02 03:24:00,
2013-10-01 22:29:00,68.2,63.8,29.98,South,180,0.0,4.9,86,0.00,,,0.00,WUHU21623XXSP,2013-10-02 03:29:00,
2013-10-01 22:34:00,67.8,63.6,29.98,South,180,0.0,0.0,86,0.00,,,0.00,WUHU21623XXSP,2013-10-02 03:34:00,
2013-10-01 22:39:00,67.8,63.8,29.99,SSW,202,1.3,5.1,87,0.00,,,0.00,WUHU21623XXSP,2013-10-02 03:39:00,
2013-10-01 22:44:00,67.6,63.6,29.99,SW,225,0.0,6.5,87,0.00,,,0.00,WUHU21623XXSP,2013-10-02 03:44:00,
2013-10-01 22:49:00,67.6,63.6,29.98,SSW,202,0.0,7.6,87,0.00,,,0.00,WUHU21623XXSP,2013-10-02 03:49:00,
2013-10-01 22:54:00,67.3,63.2,29.99,WSW,247,0.0,7.6,87,0.00,,,0.00,WUHU21623XXSP,2013-10-02 03:54:00,
2013-10-01 22:59:00,67.3,63.6,29.98,SSW,202,0.0,4.5,88,0.00,,,0.00,WUHU21623XXSP,2013-10-02 03:59:00,
2013-10-01 23:01:00,67.3,63.6,29.98,SSW,202,0.0,4.5,88,0.00,,,0.00,WUHU21623XXSP,2013-10-02 04:01:00,
2013-10-01 23:02:00,67.3,63.6,29.98,SSW,202,0.0,4.5,88,0.00,,,0.00,WUHU21623XXSP,2013-10-02 04:02:00,
2013-10-01 23:07:00,67.1,63.4,29.98,SSW,202,0.0,0.0,88,0.00,,,0.00,WUHU21623XXSP,2013-10-02 04:07:00,
2013-10-01 23:12:00,66.9,63.2,29.99,WSW,247,0.0,0.0,88,0.00,,,0.00,WUHU21623XXSP,2013-10-02 04:12:00,
2013-10-01 23:17:00,66.9,63.2,29.98,SSW,202,0.0,0.0,88,0.00,,,0.00,WUHU21623XXSP,2013-10-02 04:17:00,
2013-10-01 23:22:00,66.9,63.2,29.98,SSW,202,0.0,0.0,88,0.00,,,0.00,WUHU21623XXSP,2013-10-02 04:22:00,
2013-10-01 23:27:00,66.9,63.2,29.98,WSW,247,1.1,4.0,88,0.00,,,0.00,WUHU21623XXSP,2013-10-02 04:27:00,
2013-10-01 23:32:00,66.9,63.2,29.99,WSW,247,0.0,4.0,88,0.00,,,0.00,WUHU21623XXSP,2013-10-02 04:32:00,
2013-10-01 23:37:00,66.9,63.2,29.98,WSW,247,0.0,1.1,88,0.00,,,0.00,WUHU21623XXSP,2013-10-02 04:37:00,
2013-10-01 23:42:00,66.9,63.2,29.98,West,270,6.0,6.0,88,0.00,,,0.00,WUHU21623XXSP,2013-10-02 04:42:00,
2013-10-01 23:47:00,66.9,63.0,29.98,SW,225,0.0,6.0,88,0.00,,,0.00,WUHU21623XXSP,2013-10-02 04:47:00,
2013-10-01 23:52:00,66.7,63.0,29.98,SW,225,0.0,0.0,88,0.00,,,0.00,WUHU21623XXSP,2013-10-02 04:52:00,
2013-10-01 23:57:00,66.7,63.0,29.98,WSW,247,0.0,0.0,88,0.00,,,0.00,WUHU21623XXSP,2013-10-02 04:57:00,